EW3845 Weather Reports


time (UTC)temp
C
wind
direction
speed
KPH
gust
KPH
rain 1hr
cm
rain 24hr
cm
rain mn
cm
humidity
%
barometer
mb
20260510211510 12 9 0.0 0.0 0.00 0.00 0.00 76 1006.9
20260510210008 13 5 0.0 0.0 0.00 0.00 0.00 75 1006.8
20260510204509 13 37 0.0 0.0 0.00 0.00 0.00 75 1006.9
20260510203010 14 21 0.0 0.0 0.00 0.00 0.00 74 1007.1
20260510201507 14 287 0.0 0.0 0.00 0.00 0.00 73 1007.1
20260510200007 14 34 0.0 0.0 0.00 0.00 0.00 73 1007.0
20260510194511 15 21 0.0 0.0 0.00 0.00 0.00 73 1007.0
20260510193006 15 20 0.0 0.0 0.00 0.00 0.00 72 1007.0
20260510191505 15 35 0.0 0.0 0.00 0.00 0.00 71 1006.8
20260510190003 16 34 0.0 0.0 0.00 0.00 0.00 69 1006.9
20260510184502 16 21 0.0 0.0 0.00 0.00 0.00 68 1007.1
20260510183002 17 25 0.0 0.0 0.00 0.00 0.00 67 1007.1
20260510181600 17 15 0.0 0.0 0.00 0.00 0.00 66 1007.3
20260510180108 18 23 0.0 0.0 0.00 0.00 0.00 65 1007.4
20260510175557 18 17 0.0 0.0 0.00 0.00 0.00 65 1007.6
20260510175042 18 17 0.0 0.0 0.00 0.00 0.00 65 1007.6
20260510174657 18 16 0.0 0.0 0.00 0.00 0.00 65 1007.4
20260510174554 18 19 0.0 0.0 0.00 0.00 0.00 65 1007.6
20260510174041 18 19 0.0 0.0 0.00 0.00 0.00 64 1007.7
20260510173553 18 20 0.0 0.0 0.00 0.00 0.00 63 1007.7
20260510173141 18 22 0.0 0.0 0.00 0.00 0.00 64 1007.6
20260510173039 19 21 0.0 0.0 0.00 0.00 0.00 64 1007.7
20260510172611 19 27 0.0 0.0 0.00 0.00 0.00 63 1007.8
20260510172038 19 163 0.0 0.0 0.00 0.00 0.00 62 1007.8
20260510171651 18 20 0.0 0.0 0.00 0.00 0.00 62 1007.7
20260510171550 19 20 0.0 0.0 0.00 0.00 0.00 62 1007.9
20260510171054 19 25 0.0 0.0 0.00 0.00 0.00 62 1007.9
20260510170545 19 25 0.0 0.0 0.00 0.00 0.00 61 1007.9
20260510170154 19 17 0.0 0.0 0.00 0.00 0.00 60 1007.8
20260510170053 19 24 0.0 0.0 0.00 0.00 0.00 59 1007.9
20260510165543 19 11 0.0 0.0 0.00 0.00 0.00 58 1007.9
20260510165050 19 32 0.0 0.0 0.00 0.00 0.00 59 1007.9
20260510164622 20 21 0.0 0.0 0.00 0.00 0.00 58 1007.9
20260510164046 20 44 0.0 0.0 0.00 0.00 0.00 57 1007.9
20260510163618 20 25 0.0 0.0 0.00 0.00 0.00 60 1007.8
20260510163159 20 57 0.0 0.0 0.00 0.00 0.00 60 1007.7
20260510163043 20 39 0.0 0.0 0.00 0.00 0.00 59 1007.8
20260510162556 20 25 0.0 0.0 0.00 0.00 0.00 59 1007.9
20260510162042 20 24 0.0 0.0 0.00 0.00 0.00 58 1007.8
20260510161652 20 38 0.0 0.0 0.00 0.00 0.00 59 1007.8
20260510161552 20 30 0.0 0.0 0.00 0.00 0.00 60 1008.0
20260510161059 20 16 0.0 0.0 0.00 0.00 0.00 57 1008.1
20260510160548 20 28 0.0 0.0 0.00 0.00 0.00 58 1008.0
20260510160053 20 21 0.0 0.0 0.00 0.00 0.00 60 1008.1
20260510160007 20 19 0.0 0.0 0.00 0.00 0.00 59 1007.9
20260510155605 20 29 0.0 0.0 0.00 0.00 0.00 58 1008.2
20260510155051 20 19 0.0 0.0 0.00 0.00 0.00 58 1008.3
20260510154645 20 24 0.0 0.0 0.00 0.00 0.00 58 1008.2
20260510154544 20 14 0.0 0.0 0.00 0.00 0.00 57 1008.3
20260510154051 20 26 0.0 0.0 0.00 0.00 0.00 57 1008.4
20260510153548 20 23 0.0 0.0 0.00 0.00 0.00 56 1008.6
20260510153139 20 15 0.0 0.0 0.00 0.00 0.00 58 1008.6
20260510153037 20 47 0.0 0.0 0.00 0.00 0.00 56 1008.7
20260510152550 20 21 0.0 0.0 0.00 0.00 0.00 57 1008.8
20260510152054 20 24 0.0 0.0 0.00 0.00 0.00 58 1008.7
20260510151646 20 35 0.0 0.0 0.00 0.00 0.00 59 1008.6
20260510151546 20 35 0.0 0.0 0.00 0.00 0.00 58 1008.7
20260510151053 20 26 0.0 0.0 0.00 0.00 0.00 57 1008.8
20260510150543 20 21 0.0 0.0 0.00 0.00 0.00 58 1008.8
20260510150050 20 27 0.0 0.0 0.00 0.00 0.00 59 1008.9
20260510150007 20 26 0.0 0.0 0.00 0.00 0.00 58 1008.8
20260510145603 20 28 0.0 0.0 0.00 0.00 0.00 57 1009.0
20260510145048 20 46 0.0 0.0 0.00 0.00 0.00 57 1009.2
20260510144600 20 56 0.0 0.0 0.00 0.00 0.00 57 1009.4
20260510144508 20 13 0.0 0.0 0.00 0.00 0.00 57 1009.2
20260510144106 20 52 0.0 0.0 0.00 0.00 0.00 59 1009.5
20260510143617 20 42 0.0 0.0 0.00 0.00 0.00 58 1009.6
20260510143147 20 28 0.0 0.0 0.00 0.00 0.00 58 1009.5
20260510143043 20 24 0.0 0.0 0.00 0.00 0.00 59 1009.7
20260510142555 20 36 0.0 0.0 0.00 0.00 0.00 58 1009.7
20260510142043 20 9 0.0 0.0 0.00 0.00 0.00 58 1009.6
20260510141658 20 30 0.0 0.0 0.00 0.00 0.00 58 1009.6
20260510141556 21 30 0.0 0.0 0.00 0.00 0.00 58 1009.8
20260510141044 21 46 0.0 0.0 0.00 0.00 0.00 59 1009.8
20260510140554 21 42 0.0 0.0 0.00 0.00 0.00 56 1009.9
20260510140041 21 27 0.0 0.0 0.00 0.00 0.00 56 1009.9
20260510135553 21 41 0.0 0.0 0.00 0.00 0.00 56 1010.0
20260510135040 21 10 0.0 0.0 0.00 0.00 0.00 58 1010.0
20260510134613 21 49 0.0 0.0 0.00 0.00 0.00 59 1010.1
20260510134040 21 9 0.0 0.0 0.00 0.00 0.00 58 1010.1
20260510133553 21 65 0.0 0.0 0.00 0.00 0.00 58 1010.1
20260510133101 21 17 0.0 0.0 0.00 0.00 0.00 57 1010.2
20260510132552 21 16 0.0 0.0 0.00 0.00 0.00 56 1010.2
20260510132040 21 21 0.0 0.0 0.00 0.00 0.00 58 1010.3
20260510131657 21 13 0.0 0.0 0.00 0.00 0.00 57 1010.3
20260510131553 21 13 0.0 0.0 0.00 0.00 0.00 57 1010.5
20260510131037 21 131 0.0 0.0 0.00 0.00 0.00 56 1010.5
20260510130549 21 129 0.0 0.0 0.00 0.00 0.00 58 1010.5
20260510130157 21 172 0.0 0.0 0.00 0.00 0.00 58 1010.4
20260510130055 21 172 0.0 0.0 0.00 0.00 0.00 60 1010.7
20260510125547 21 23 0.0 0.0 0.00 0.00 0.00 58 1010.7
20260510125055 21 19 0.0 0.0 0.00 0.00 0.00 59 1010.7
20260510124649 21 150 0.0 0.0 0.00 0.00 0.00 58 1010.7
20260510124548 21 150 0.0 0.0 0.00 0.00 0.00 57 1010.8
20260510124055 21 16 0.0 0.0 0.00 0.00 0.00 60 1011.0
20260510123548 21 19 0.0 0.0 0.00 0.00 0.00 61 1011.0
20260510123156 20 50 0.0 0.0 0.00 0.00 0.00 61 1011.0
20260510123056 20 33 0.0 0.0 0.00 0.00 0.00 61 1011.2
20260510122549 20 33 0.0 0.0 0.00 0.00 0.00 60 1011.3
20260510122039 21 27 0.0 0.0 0.00 0.00 0.00 58 1011.3
20260510121653 20 31 0.0 0.0 0.00 0.00 0.00 58 1011.2
20260510121551 21 42 0.0 0.0 0.00 0.00 0.00 59 1011.4
20260510121038 21 36 0.0 0.0 0.00 0.00 0.00 57 1011.4
20260510120550 21 27 0.0 0.0 0.00 0.00 0.00 57 1011.4
20260510120158 21 36 0.0 0.0 0.00 0.00 0.00 60 1011.4
20260510120057 21 34 0.0 0.0 0.00 0.00 0.00 61 1011.5
20260510115546 21 32 0.0 0.0 0.00 0.00 0.00 58 1011.5
20260510115055 21 16 0.0 0.0 0.00 0.00 0.00 58 1011.5
20260510114650 21 19 0.0 0.0 0.00 0.00 0.00 57 1011.4
20260510114547 21 32 0.0 0.0 0.00 0.00 0.00 58 1011.5
20260510114053 21 26 0.0 0.0 0.00 0.00 0.00 57 1011.5
20260510113545 21 47 0.0 0.0 0.00 0.00 0.00 57 1011.4
20260510113053 21 10 0.0 0.0 0.00 0.00 0.00 57 1011.3
20260510113009 21 10 0.0 0.0 0.00 0.00 0.00 57 1011.2
20260510112543 21 355 0.0 0.0 0.00 0.00 0.00 56 1011.6
20260510112050 21 175 0.0 0.0 0.00 0.00 0.00 58 1011.6
20260510111602 21 50 0.0 0.0 0.00 0.00 0.00 57 1011.7
20260510111051 21 34 0.0 0.0 0.00 0.00 0.00 59 1011.8
20260510110601 21 41 0.0 0.0 0.00 0.00 0.00 58 1011.8
20260510110045 21 55 0.0 0.0 0.00 0.00 0.00 60 1011.7
20260510110007 21 55 0.0 0.0 0.00 0.00 0.00 60 1011.6
20260510105604 21 48 0.0 0.0 0.00 0.00 0.00 61 1011.9
20260510104509 20 131 0.0 0.0 0.00 0.00 0.00 60 1011.8
20260510103006 20 144 0.0 0.0 0.00 0.00 0.00 60 1012.1
20260510101504 20 40 0.0 0.0 0.00 0.00 0.00 62 1012.2
20260510100002 20 32 0.0 0.0 0.00 0.00 0.00 63 1012.3
20260510094607 20 43 0.0 0.0 0.00 0.00 0.00 63 1012.4
20260510093101 20 12 0.0 0.0 0.00 0.00 0.00 65 1012.4
20260510091554 19 41 0.0 0.0 0.00 0.00 0.00 67 1012.6
20260510090057 18 18 0.0 0.0 0.00 0.00 0.00 67 1012.6
20260510084607 18 29 0.0 0.0 0.00 0.00 0.00 70 1012.7
20260510083045 17 31 0.0 0.0 0.00 0.00 0.00 73 1012.7
20260510081549 16 25 0.0 0.0 0.00 0.00 0.00 77 1012.9
20260510080034 15 37 0.0 0.0 0.00 0.00 0.00 78 1012.9
20260510074531 14 24 0.0 0.0 0.00 0.00 0.00 81 1013.0
20260510073028 13 33 0.0 0.0 0.00 0.00 0.00 83 1013.1
20260510071531 13 28 0.0 0.0 0.00 0.00 0.00 84 1013.0
20260510070035 12 15 0.0 0.0 0.00 0.00 0.00 85 1013.0
20260510064527 12 22 0.0 0.0 0.00 0.00 0.00 87 1013.0
20260510063024 11 21 0.0 0.0 0.00 0.00 0.00 86 1012.9
20260510061523 11 21 0.0 0.0 0.00 0.00 0.00 87 1013.0
20260510060022 11 21 0.0 0.0 0.00 0.00 0.00 87 1013.0
20260510054522 11 21 0.0 0.0 0.00 0.00 0.00 87 1012.9
20260510053025 10 21 0.0 0.0 0.00 0.00 0.00 87 1012.9
20260510051521 10 21 0.0 0.0 0.00 0.00 0.00 87 1012.9
20260510050026 10 21 0.0 0.0 0.00 0.00 0.00 86 1012.9
20260510044529 10 21 0.0 0.0 0.00 0.00 0.00 86 1012.9
20260510043018 10 21 0.0 0.0 0.00 0.00 0.00 85 1013.1
20260510041518 10 21 0.0 0.0 0.00 0.00 0.00 85 1013.1
20260510040014 10 21 0.0 0.0 0.00 0.00 0.00 84 1013.1
20260510034511 10 21 0.0 0.0 0.00 0.00 0.00 83 1013.1
20260510033010 11 21 0.0 0.0 0.00 0.00 0.00 83 1013.1
20260510031508 11 21 0.0 0.0 0.00 0.00 0.00 82 1013.1
20260510030006 11 21 0.0 0.0 0.00 0.00 0.00 82 1013.3
20260510024505 11 21 0.0 0.0 0.00 0.00 0.00 81 1013.4
20260510023003 11 21 0.0 0.0 0.00 0.00 0.00 81 1013.3
20260510021506 11 21 0.0 0.0 0.00 0.00 0.00 81 1013.5
20260510020002 12 21 0.0 0.0 0.00 0.00 0.00 81 1013.6
20260510014601 12 21 0.0 0.0 0.00 0.00 0.00 81 1013.6
20260510013103 11 21 0.0 0.0 0.00 0.00 0.00 80 1013.6
20260510011602 11 21 0.0 0.0 0.00 0.00 0.00 81 1013.6
20260510010105 11 21 0.0 0.0 0.00 0.00 0.00 80 1013.6
20260510004556 11 21 0.0 0.0 0.00 0.00 0.00 80 1013.7
20260510003056 11 21 0.0 0.0 0.00 0.00 0.00 79 1013.8
20260510001554 11 21 0.0 0.0 0.00 0.00 0.00 78 1013.9
20260510000104 12 21 0.0 0.0 0.00 0.00 0.00 77 1014.0
20260509234557 12 21 0.0 0.0 0.00 0.00 0.00 76 1014.3
20260509233049 12 21 0.0 0.0 0.00 0.00 0.00 75 1014.3
20260509231547 12 21 0.0 0.0 0.00 0.00 0.00 75 1014.4
20260509230042 12 21 0.0 0.0 0.00 0.00 0.00 74 1014.5
20260509224540 13 21 0.0 0.0 0.00 0.00 0.00 73 1014.6
20260509223042 13 21 0.0 0.0 0.00 0.00 0.00 73 1014.6
20260509221540 13 21 0.0 0.0 0.00 0.00 0.00 72 1014.7
20260509220036 13 21 0.0 0.0 0.00 0.00 0.00 72 1014.8
20260509214535 14 21 0.0 0.0 0.00 0.00 0.00 71 1014.8
20260509213038 14 21 0.0 0.0 0.00 0.00 0.00 70 1014.8